Flag for Belarus Weather past 2 weeks in Minsk, Belarus

Now
63 °F

Sunny.


Feels Like: 63 °F
Forecast: 41 / 64 °F
Wind: 6 mph from East

Location: Loshitsa / Minsk International 1

Current Time: Sep 17, 2014 at 12:33:42 PM

Latest Report: Sep 17, 2014 at 12:00 PM


Visibility: 10 mi

Pressure: 30.36 "Hg

Humidity: 45%

Dew point: 41 °F

Location of MinskLocation

Historic Weather in Minsk — Graph

°F

Minsk temperature yesterday

Maximum temperature yesterday: 64 °F (at 4:00 PM)
Minimum temperature yesterday: 43 °F (at 7:00 AM)
Average temperature yesterday: 58 °F

Past Weeks' High & Low Weather Summary

 TemperatureHumidityPressure
High75 °F (Sep 13, 3:00 PM)100% (Sep 3, 7:00 AM)30.42 "Hg (Sep 3, 7:00 AM)
Low43 °F (Sep 16, 7:00 AM)27% (Sep 12, 3:00 PM)29.95 "Hg (Sep 9, 7:30 PM)
Average62 °F70%30.20 "Hg
* Reported Sep 2 11:00 AM — Sep 17 11:30 AM, Minsk, Weather by CustomWeather, © 2014

Note: Actual official high and low records may vary slightly from our data, if they occured in-between our weather recording intervals... More about our weather records

Advertising

Minsk weather history for previous 24 hours

 ConditionsComfort  
Time TempWeatherWind HumidityBarometerVisibility
11:30 AM
Sep 17
59 °FSunny.3 mph59%30.36 "Hg10 mi
11:00 AM59 °FSunny.3 mph59%30.36 "Hg10 mi
10:30 AM55 °FSunny.3 mph63%30.36 "Hg10 mi
10:00 AM55 °FSunny.3 mph63%30.36 "Hg10 mi
9:30 AM52 °FSunny.3 mph72%30.36 "Hg10 mi
9:00 AM52 °FSunny.3 mph72%30.36 "Hg10 mi
8:30 AM48 °FSunny.1 mph87%30.33 "Hg10 mi
8:00 AM48 °FClear.1 mph87%30.33 "Hg4 mi
7:30 AM46 °FClear.No wind87%30.33 "Hg4 mi
7:00 AM46 °FClear.1 mph87%30.33 "Hg4 mi
8:30 PM
Sep 16
59 °FClear.3 mph59%30.30 "Hg10 mi
8:00 PM59 °FSunny.3 mph59%30.30 "Hg10 mi
7:30 PM63 °FPassing clouds.3 mph52%30.30 "HgN/A
7:00 PM63 °FPassing clouds.3 mph52%30.30 "HgN/A
6:30 PM63 °FPartly sunny.3 mph52%30.30 "HgN/A
6:00 PM63 °FPartly sunny.3 mph52%30.30 "HgN/A
5:30 PM64 °FScattered clouds.3 mph56%30.30 "HgN/A
5:00 PM64 °FScattered clouds.6 mph56%30.30 "HgN/A
4:30 PM64 °FPassing clouds.6 mph46%30.33 "HgN/A
4:00 PM64 °FPassing clouds.6 mph46%30.33 "HgN/A
3:30 PM63 °FSunny.6 mph42%30.33 "Hg10 mi
3:00 PM63 °FSunny.6 mph42%30.33 "Hg10 mi
2:30 PM63 °FSunny.3 mph45%30.36 "Hg10 mi
2:00 PM63 °FSunny.6 mph45%30.36 "Hg10 mi
1:30 PM61 °FSunny.3 mph52%30.36 "Hg10 mi
1:00 PM61 °FSunny.6 mph52%30.36 "Hg10 mi
12:30 PM61 °FSunny.3 mph52%30.36 "Hg10 mi
12:00 PM61 °FSunny.3 mph52%30.36 "Hg10 mi
Weather by CustomWeather, © 2014

See weather overviewHow to use our weather pages